Regional Weather Roundup
Issued by NWS

Home | Current Version | Previous Version | Text Only | Print | Product List | Glossary Off
Versions: 1 2 3 4 5 6 7 8 9 10 11 12 13 14 15 16 17 18 19 20 21 22 23 24 25 26 27 28 29 30 31 32 33 34 35 36 37 38 39 40 41 42 43 44 45 46 47 48 49 50

000
ASUS43 KMKX 020721
RWRWI

WISCONSIN REGIONAL WEATHER ROUNDUP
NATIONAL WEATHER SERVICE MILWAUKEE/SULLIVAN WI
200 AM CDT SUN AUG 02 2015

NOTE: "FAIR" INDICATES FEW OR NO CLOUDS BELOW 12,000 FEET WITH NO
SIGNIFICANT WEATHER AND/OR OBSTRUCTIONS TO VISIBILITY.

WIZ001-002-006>008-014>016-023>028-020800-
NORTHWEST WISCONSIN

CITY           SKY/WX    TMP DP  RH WIND       PRES   REMARKS
SUPERIOR ARPT  CLEAR     62  59  90 SW3       29.65F
ASHLAND        CLEAR     60  58  92 S3        29.68F
HAYWARD        PTCLDY    69  63  81 S7        29.72F
SIREN          PTCLDY    73  65  75 SW10G16   29.70F
CUMBERLAND     CLEAR     64  63  94 SW5       29.74F
RICE LAKE      CLEAR     67  63  85 SE3       29.75F
CHETEK         CLEAR     69  65  88 CALM      29.74F
LADYSMITH      MOCLDY    68  63  82 S7        29.76F
EAU CLAIRE     MOCLDY    70  66  87 SW6       29.75F
MENOMONIE      PTCLDY    72  66  81 SW9       29.75F
NEW RICHMOND   PTCLDY    71  65  83 SW6       29.74F
OSCEOLA        PTCLDY    72  65  77 S5        29.74F
$$

WIZ003>005-009-010-017-018-020800-
NORTH CENTRAL WISCONSIN

CITY           SKY/WX    TMP DP  RH WIND       PRES   REMARKS
MANITOWISH WTR CLEAR     56  56 100 CALM      29.73F
ARBOR VITAE    CLEAR     59  56  87 CALM      29.75F
WOODRUFF       CLEAR     59  56  87 CALM      29.75F
RHINELANDER    PTCLDY    65  58  78 SW8       29.77F
EAGLE RIVER    CLEAR     60  53  78 CALM      29.75F
LAND O LAKES   CLEAR     53  52  98 CALM      29.76F
PHILLIPS       CLEAR     64  61  91 S6        29.74F
TOMAHAWK       MOCLDY    65  59  81 CALM      29.78F
MEDFORD        MOCLDY    68  63  83 SW8G16    29.78F
MERRILL        NOT AVBL
$$

WIZ029-030-035-036-043>047-020800-
CENTRAL WISCONSIN

CITY           SKY/WX    TMP DP  RH WIND       PRES   REMARKS
WAUSAU         MOCLDY    69  61  75 SW10      29.78F THUNDER
MOSINEE        MOCLDY    64  61  88 S7        29.80F
MARSHFIELD     LGT RAIN  67  60  78 SW5       29.80F
STEVENS POINT  PTCLDY    66  60  81 SW3       29.81F
WAUPACA        PTCLDY    65  59  83 CALM      29.80S
WAUTOMA        CLEAR     62  59  90 CALM      29.81F
WISC RAPIDS    PTCLDY    66  60  81 S5        29.81S
CAMP DOUGLAS   PTCLDY    75  74  95 SW13G18   29.79F
$$

WIZ011>013-019>022-031-037>040-048>050-020800-
NORTHEAST WISCONSIN

CITY           SKY/WX    TMP DP  RH WIND       PRES   REMARKS
ANTIGO         LGT RAIN  65  60  82 SW9       29.79F
SHAWANO        PTCLDY    67  56  69 CALM      29.77F
OCONTO         CLEAR     58  56  93 CALM      29.76F
STURGEON BAY   CLEAR     64  52  63 S6        29.79F
GREEN BAY      CLEAR     65  58  78 S6        29.78F
MANITOWOC      CLEAR     64  57  78 MISG      29.80F
APPLETON       CLEAR     68  55  64 SW9       29.80F
CLINTONVILLE   PTCLDY    64  55  72 CALM      29.78F
OSHKOSH        CLEAR     71  59  65 SW9       29.80F
$$

WIZ032>034-041-042-053>061-020800-
SOUTHWEST WISCONSIN

CITY           SKY/WX    TMP DP  RH WIND       PRES   REMARKS
LA CROSSE      PTCLDY    75  68  78 E3        29.79S
SPARTA         PTCLDY    73  65  76 SW5       29.80S
VIROQUA        PTCLDY    72  68  87 SW12      29.82F
BOSCOBEL       CLEAR     72  68  87 S5        29.83F
PRAIRIE DU CHI PTCLDY    73  66  80 CALM      29.84F
PLATTEVILLE    PTCLDY    69  68  96 SW7       29.87F
$$

WIZ056-057-062-063-064-067-068-020800-
SOUTH CENTRAL WISCONSIN

CITY           SKY/WX    TMP DP  RH WIND       PRES   REMARKS
REEDSBURG      MOCLDY    73  67  81 SW9       29.81F
BARABOO/DELLS  MOCLDY    72  65  79 SW8       29.82F
LONE ROCK      PTCLDY    67  63  87 CALM      29.84F
MINERAL POINT  PTCLDY    72  68  88 SW8       29.87F
MADISON        PTCLDY    76  68  76 VRB7      29.84F
MIDDLETON      MOCLDY    75  67  76 SW13      29.85F
WATERTOWN      PTCLDY    67  67 100 CALM      29.84F
MONROE         CLEAR     72  66  83 SW14      29.87F
JANESVILLE     CLEAR     70  68  94 SW6       29.86F
$$

WIZ051-052-058>065-066-070>072-020800-
SOUTHEAST WISCONSIN

CITY           SKY/WX    TMP DP  RH WIND       PRES   REMARKS
MILWAUKEE      PTCLDY    72  65  78 SW9       29.85F
WAUKESHA       PTCLDY    68  64  88 SW6       29.86F
MILWAUKEE/TIMM PTCLDY    68  59  73 SW3       29.85F
RACINE         PTCLDY    71  65  81 SW6       29.87S
BURLINGTON     PTCLDY    68  65  90 SW6       29.86F
KENOSHA        PTCLDY    70  65  84 W9        29.86F
FOND DU LAC    CLEAR     67  60  78 S7        29.82F
SHEBOYGAN      CLEAR     62  58  86 SW5       29.81F
WEST BEND      CLEAR     72  63  73 W6        29.83F
JUNEAU         PTCLDY    64  60  89 SW5       29.85F
$$

LSZ147-162-020800-
LAKE SUPERIOR

STATION/POSITION TIME  TEMP    WIND        PRES    WAVE
                       AIR SEA DIR/SP/G            HT/PER
                 (UTC) (F)     (DEG/KT/KT) (MB)    (FT/S)
W MID LAKE BUOY  0650   61 55  220/ 12/ 12 1003.4F   1/ 3
DEVILS ISLAND    0700   65     240/  6/  7 1004.3S
PORT WING        0600   67     150/  2/  5 1005.1F
SAXON HARBOR     0600   68                 1005.1
$$

LMZ867-665-643>646-020800-
LAKE MICHIGAN

STATION/POSITION TIME  TEMP    WIND        PRES    WAVE
                       AIR SEA DIR/SP/G            HT/PER
                 (UTC) (F)     (DEG/KT/KT) (MB)    (FT/S)
CHAMBERS ISLAND  0600   70     200/  4/  8 1008.1F
S GREEN BAY BUOY 0700   71 69  190/ 10/ 12 1009.5F
N MID LAKE BUOY  0650   69 69  220/ 14/ 16 1006.9F   1/ 4
NORTHPORT PIER   0600   66     180/  2/  6 1008.1F
SISTER BAY       0645   69     190/  6/  8   N/A
ALGOMA LAKESHORE 0612          220/  7/  9   N/A
KEWAUNEE LAKESHO 0600   66     250/  4/  5 1008.7F
SHEBOYGAN LAKESH 0700   66     190/  6/  7 1009.4F
PORT WASHINGTON  0640   71     250/  6/  8 1010.5F
ATWATER BUOY     0700   72 61  230/ 12/ 14 1011.6F
MILWAUKEE LAKESH 0700   73     240/ 10/ 12   N/A
KENOSHA   LAKESH 0700   74     250/  8/ 14 1010.5F
$$

TC  - TEMPERATURE IN CELSIUS
VSB - VISIBILITY IN STATUTE MILES
WCI - WIND CHILL INDEX
HX  - HEAT INDEX




USA.gov is the U.S. government's official web portal to all federal, state and local government web resources and services.